Duluth International Airport
KDLH : now visible

Airfield :











YOU CAN JOIN US ON...

 
LOGIN :

Register | Disclaimer

   EN    FR    IT 

 









Legend :    VFR   Marginal VFR   IFR   Intensive IFR   Very Intensive IFR
Visi :
Ceiling :
>= 8 km
>= 3000ft
5 to 8 km
1000 to 3000 ft
1500m to 5 km
500 to 1000 ft
800 to 1500m
200 to 500 ft
< 800m
< 200 ft
Symbols :   Thunderstorms  Fog  Heavy snow  Heavy precipitations  Wind > 20 kt






- Airport Elevation : 1428 ft
- IATA code : DLH


KDLH - Duluth International

CURRENT METAR :
  • 191955Z 31014G26KT 10SM SCT040 02/M08 A2992 RMK AO2 PK WND 31026/1947 SLP152 T00221078

EXPIRED METARs :
  • 191855Z 31014G22KT 10SM BKN043 OVC075 02/M07 A2993 RMK AO2 SLP154 T00171072
  • 191755Z 32014G24KT 10SM FEW034 OVC075 01/M08 A2993 RMK AO2 SLP152 60000 T00061078 10006 21022 53008

TAF KDLH
Valid from the 19 at 18:00 until the 20 at 18:00 UTC


191732Z 1918/2018 33016G25KT P6SM SCT045
FM192100 33014G23KT P6SM FEW060
FM200700 32006KT P6SM FEW100
KZMP FIR / North America



MET'MAP, your aeronautical weather chart ! - Copyright ORBIFLY December 2007 - Disclaimer

ORBIFLY MET'MAP TEAM :

Programming & Development : Alexandra Zaïnal
Concept & original design : Baudouin d'Aumeries
Assistance for programming : Marc-Olivier Méhu
Technical & hardware support : Manuel Goepfert

Contact : metmap@orbifly.com




SOURCES & CREDITS :

   NOAA       Earth
Advisory